TimeEST,TemperatureF,Dew PointF,Humidity,Sea Level PressureIn,VisibilityMPH,Wind Direction,Wind SpeedMPH,Gust SpeedMPH,PrecipitationIn,Events,Conditions,WindDirDegrees,DateUTC
12:53 AM,19.9,12.9,74,30.07,10.0,West,8.1,16.1,N/A,,Overcast,270,2009-12-28 05:53:00
1:53 AM,19.0,12.9,77,30.06,10.0,West,8.1,-,N/A,,Mostly Cloudy,260,2009-12-28 06:53:00
2:03 AM,19.4,12.2,74,30.03,10.0,West,11.5,-,N/A,,Scattered Clouds,260,2009-12-28 07:03:00
2:53 AM,19.9,12.9,74,30.07,10.0,WSW,8.1,-,N/A,,Overcast,250,2009-12-28 07:53:00
3:53 AM,18.0,10.9,74,30.07,10.0,WSW,11.5,-,N/A,,Clear,250,2009-12-28 08:53:00
4:46 AM,17.6,12.2,79,30.03,10.0,WSW,8.1,19.6,N/A,,Mostly Cloudy,250,2009-12-28 09:46:00
4:53 AM,18.0,12.0,78,30.06,10.0,WSW,8.1,-,N/A,,Mostly Cloudy,250,2009-12-28 09:53:00
5:07 AM,19.4,12.2,74,30.03,10.0,West,9.2,-,N/A,,Overcast,260,2009-12-28 10:07:00
5:29 AM,19.4,12.2,74,30.03,10.0,WSW,6.9,-,N/A,,Overcast,250,2009-12-28 10:29:00
5:53 AM,19.0,12.9,77,30.06,10.0,WSW,11.5,-,N/A,,Overcast,250,2009-12-28 10:53:00
6:53 AM,19.9,12.9,74,30.06,10.0,WSW,8.1,-,N/A,,Overcast,250,2009-12-28 11:53:00
7:53 AM,19.9,15.1,81,30.06,8.0,WSW,8.1,-,N/A,,Overcast,240,2009-12-28 12:53:00
8:01 AM,19.4,15.8,86,30.03,8.0,WSW,10.4,-,N/A,,Overcast,240,2009-12-28 13:01:00
8:45 AM,19.4,17.6,93,30.05,2.5,WSW,9.2,-,N/A,,Overcast,240,2009-12-28 13:45:00
8:53 AM,19.9,18.0,92,30.08,5.0,WSW,9.2,-,N/A,,Overcast,240,2009-12-28 13:53:00
9:15 AM,21.2,19.4,93,30.05,2.0,WSW,9.2,17.3,N/A,,Overcast,240,2009-12-28 14:15:00
9:24 AM,21.2,19.4,93,30.05,1.5,WSW,8.1,-,N/A,,Overcast,250,2009-12-28 14:24:00
9:49 AM,21.2,19.4,93,30.06,2.5,WSW,9.2,-,N/A,,Overcast,250,2009-12-28 14:49:00
9:53 AM,21.9,19.9,92,30.09,2.5,West,8.1,-,N/A,,Overcast,260,2009-12-28 14:53:00
10:11 AM,21.2,19.4,93,30.06,1.8,WSW,10.4,-,N/A,,Overcast,250,2009-12-28 15:11:00
10:21 AM,23.0,19.4,86,30.06,2.0,WSW,9.2,-,N/A,,Overcast,250,2009-12-28 15:21:00
10:38 AM,23.0,21.2,93,30.06,1.5,West,8.1,-,0.00,Snow,Light Snow,260,2009-12-28 15:38:00
10:53 AM,23.0,21.0,92,30.09,1.2,WSW,12.7,17.3,0.00,Snow,Light Snow,250,2009-12-28 15:53:00
11:14 AM,24.8,21.2,86,30.06,2.0,WSW,10.4,-,0.00,,Overcast,240,2009-12-28 16:14:00
11:53 AM,25.0,21.9,88,30.07,3.0,WSW,11.5,18.4,0.00,,Overcast,250,2009-12-28 16:53:00
12:53 PM,26.1,23.0,88,30.05,5.0,West,10.4,19.6,N/A,,Overcast,260,2009-12-28 17:53:00
1:53 PM,27.0,24.1,89,30.04,6.0,West,9.2,21.9,N/A,,Overcast,260,2009-12-28 18:53:00
2:39 PM,28.4,24.8,86,30.01,9.0,West,11.5,-,N/A,,Overcast,260,2009-12-28 19:39:00
2:53 PM,28.9,24.1,82,30.04,10.0,West,10.4,-,N/A,,Overcast,260,2009-12-28 19:53:00
3:27 PM,30.2,24.8,80,30.03,10.0,West,12.7,-,N/A,,Overcast,270,2009-12-28 20:27:00
3:53 PM,30.0,24.1,79,30.07,10.0,West,13.8,20.7,N/A,,Overcast,280,2009-12-28 20:53:00
4:17 PM,30.2,24.8,80,30.05,10.0,West,15.0,21.9,N/A,,Overcast,280,2009-12-28 21:17:00
4:29 PM,30.2,23.0,75,30.06,10.0,West,13.8,20.7,N/A,,Overcast,280,2009-12-28 21:29:00
4:53 PM,30.0,21.9,72,30.11,10.0,WNW,12.7,21.9,N/A,,Overcast,290,2009-12-28 21:53:00
5:53 PM,28.0,21.0,75,30.16,10.0,NW,8.1,-,N/A,,Overcast,310,2009-12-28 22:53:00
6:53 PM,27.0,21.9,81,30.21,7.0,NW,8.1,-,0.00,Snow,Light Snow,310,2009-12-28 23:53:00
7:35 PM,26.6,19.4,74,30.19,10.0,WNW,10.4,-,0.00,,Overcast,290,2009-12-29 00:35:00
7:53 PM,27.0,19.9,75,30.23,10.0,WNW,9.2,-,0.00,,Overcast,290,2009-12-29 00:53:00
8:53 PM,27.0,19.9,75,30.26,10.0,WNW,8.1,-,N/A,,Overcast,300,2009-12-29 01:53:00
9:53 PM,27.0,18.0,69,30.29,10.0,WNW,5.8,-,N/A,,Overcast,300,2009-12-29 02:53:00
10:53 PM,27.0,18.0,69,30.30,10.0,Variable,5.8,-,N/A,,Overcast,0,2009-12-29 03:53:00
11:53 PM,27.0,16.0,63,30.31,10.0,NNW,5.8,-,N/A,,Overcast,340,2009-12-29 04:53:00